Location: Castellare
(42.4669°N, 9.4728°E)
Time: 11:48:49
(UTC+00:00)

Cosmos 1934 Rocket - Pass Details

Date: 17 February 2020
Orbit: 939 x 999 km, 83.0° (Epoch: 08 April)

Event Time Altitude Azimuth Distance (km) Brightness Sun altitude
Rises 03:45:05 0° 350° (N) 3,689 7.0 -28.6°
Reaches altitude 10° 03:47:36 10° 349° (N) 2,745 6.3 -28.1°
Maximum altitude 03:53:53 76° 266° (W) 1,025 3.8 -27.0°
Drops below altitude 10° 04:00:12 10° 181° (S) 2,755 6.3 -25.8°
Sets 04:02:44 0° 180° (S) 3,703 7.0 -25.4°
